Regional Weather Roundup
Issued by NWS

Home | Current Version | Previous Version | Graphics & Text | Print | Product List | Glossary On
Versions: 1 2 3 4 5 6 7 8 9 10 11 12 13 14 15 16 17 18 19 20 21 22 23 24 25 26 27 28 29 30 31 32 33 34 35 36 37 38 39 40 41 42 43 44 45 46 47 48 49 50
000
ASUS43 KMPX 182110
RWRMN
WEATHER ROUNDUP FOR MINNESOTA
NATIONAL WEATHER SERVICE TWIN CITIES/CHANHASSEN MN
400 PM CDT FRI APR 18 2014


NOTE: "FAIR" INDICATES FEW OR NO CLOUDS BELOW 12,000 FEET WITH NO
SIGNIFICANT WEATHER AND/OR OBSTRUCTIONS TO VISIBILITY. N/A MEANS
CURRENT SKY AND/OR WEATHER CONDITIONS ARE NOT AVAILABLE.

MNZ060>063-068>070-182200-
   Twin Cities Metro

CITY           SKY/WX    TMP DP  RH WIND       PRES   REMARKS
TWIN CITIES    CLOUDY    51  29  42 E15       30.29F
ST PAUL        MOSUNNY   51  28  41 SE9       30.31F
CRYSTAL        MOSUNNY   49  25  39 SE9       30.28F
EDEN PRAIRIE   PTSUNNY   52  28  39 E15G21    30.27F
LAKEVILLE      MOSUNNY   48  30  49 SE9       30.28F
SOUTH ST PAUL  MOSUNNY   53  26  35 SE9       30.30F
LAKE ELMO      FAIR      50  30  46 SE9       30.31F
$$
MNZ001>005-007-008-013>017-022>024-027-028-182200-
   Northwest Minnesota

CITY           SKY/WX    TMP DP  RH WIND       PRES   REMARKS
BEMIDJI        PTSUNNY   46  20  35 SE20      30.21F
HALLOCK        CLOUDY    50  27  40 SE17G25   30.13F
ROSEAU         SUNNY     52  12  20 E17       30.20F
WARROAD        SUNNY     46  21  36 E14       30.23F
THIEF RVR FALL CLOUDY    52  25  35 SE22G28   30.14F
CROOKSTON      MOSUNNY   52  27  37 SE22G29   30.13F
FOSSTON        PTSUNNY   52  25  35 SE18G24   30.16F
DETROIT LAKES  MOSUNNY   46  28  49 SE21      30.15F
MOORHEAD       MOSUNNY   52  25  35 SE24G33   30.11F
PARK RAPIDS    MOSUNNY   47  23  38 SE17      30.20F
$$
MNZ006-009>011-018-025>026-182200-
   North Central Minnesota

CITY           SKY/WX    TMP DP  RH WIND       PRES   REMARKS
BAUDETTE       MOSUNNY   47  15  27 E14       30.24F
FLAG ISLAND    SUNNY     43  14  31 E10G17    30.26F
INTL FALLS     MOSUNNY   45  12  26 SE9G18    30.30F
WASKISH        SUNNY     52  19  28 E14G20    30.23F
BIG FORK       SUNNY     48  16  27 SE12G18   30.27F
LONGVILLE      FAIR      48  19  32 SE15G23   30.24F
GRAND RAPIDS   MOSUNNY   46  16  29 SE13      30.28F
CRANE LAKE     SUNNY     46  12  25 CALM      30.34F
ORR            SUNNY     45   9  23 SE5       30.29F
COOK           SUNNY     45  12  26 E8        30.31F
$$
MNZ012-019>021-037-182200-
   Northeast Minnesota

CITY           SKY/WX    TMP DP  RH WIND       PRES   REMARKS
DULUTH         SUNNY     37  20  50 SE13      30.35F
ELY            SUNNY     43  16  33 CALM      30.33F
HIBBING        SUNNY     49  12  22 SE7G16    30.29F
EVELETH        SUNNY     45   7  21 E9        30.31F
DULUTH HARBOR  SUNNY     34  30  86 CALM      30.40S
TWO HARBORS    SUNNY     36  21  55 E9        30.36S
SILVER BAY     SUNNY     36  27  69 E7        30.37S
GRAND MARAIS     N/A     35  26  69 SW3       30.42F
G MARAIS ARPRT SUNNY     36  19  51 SE5       30.36F
$$
MNZ029>031-032-039>041-046>048-054>057-064-182200-
   West Central Minnesota

CITY           SKY/WX    TMP DP  RH WIND       PRES   REMARKS
FERGUS FALLS   PTSUNNY   46  21  36 SE25G32   30.10F
WHEATON        MOSUNNY   52  37  58 SE31G39   30.12S
MORRIS         MOSUNNY   48  34  57 SE33      30.11F
ALEXANDRIA     CLOUDY    44  27  51 E24G35    30.18F
ELBOW LAKE     FAIR      44  29  54 SE21G32   30.13F
WADENA         PTSUNNY   45  25  45 SE22G28   30.19F
GLENWOOD       PTSUNNY   43  32  65 E28       30.19F
APPLETON       MOSUNNY   50  36  57 SE29G37   30.12F
BENSON         MOSUNNY   48  34  57 SE24G37   30.15F
ORTONVILLE     MOSUNNY   48  36  61 SE20G33   30.09F
MADISON        SUNNY     54  39  58 SE29G39   30.09F
WILLMAR        FAIR      46  34  61 SE23G31   30.19F
$$
MNZ033>034-036-042>043-049>051-058-059-182200-
   Central Minnesota

CITY           SKY/WX    TMP DP  RH WIND       PRES   REMARKS
ST CLOUD       CLOUDY    45  26  47 SE8       30.27F
SAUK CENTRE    CLOUDY    42  28  57 E15G22    30.22F
PAYNESVILLE    CLOUDY    45  29  55 E16G22    30.22F
AITKIN         PTSUNNY   48  21  34 S9        30.27F
PINE RIVER     PTSUNNY   46  25  42 SE14G23   30.27F
BRAINERD       PTSUNNY   48  23  37 SE10G20   30.27F
STAPLES        MOSUNNY   43  25  49 SE14      30.23F
LONG PRAIRIE   FAIR      41  25  52 E18G25    30.23F
LITTLE FALLS   MOSUNNY   41  27  56 E8G17     30.26F
LITCHFIELD     CLOUDY    46  30  53 E14       30.23F
BUFFALO        CLOUDY    47  29  50 E9        30.27F
MAPLE LAKE     CLOUDY    46  30  52 E9        30.27F
$$
MNZ037-044-045-052-053-182200-
   East Central Minnesota

CITY           SKY/WX    TMP DP  RH WIND       PRES   REMARKS
PRINCETON      MOSUNNY   46  27  46 E10       30.29F
MORA           CLOUDY    43  25  49 SE7       30.33F
CAMBRIDGE      SUNNY     46  30  53 E10       30.29F
RUSH CITY      PTSUNNY   45  22  39 SE9       30.32F
MOOSE LAKE     MOSUNNY   48  19  32 E3        30.31F
HINCKLEY       CLOUDY    45  23  42 E7        30.32F
CLOQUET        SUNNY     39  16  38 E10       30.33F
MCGREGOR       SUNNY     46  21  36 E12G18    30.29F
$$
MNZ071>073-080-081-089-090-097-098-182200-
   Southwest Minnesota

CITY           SKY/WX    TMP DP  RH WIND       PRES   REMARKS
MONTEVIDEO     MOSUNNY   50  37  62 SE26G32   30.15F
GRANITE FALLS  MOSUNNY   49  36  60 E20G28    30.15F
CANBY          SUNNY     57  41  56 SE25      30.08F
MARSHALL       MOSUNNY   59  36  41 SE25G39   30.09F
REDWOOD FALLS  SUNNY     55  38  52 SE24G32   30.16F
OLIVIA         SUNNY     50  37  62 SE13G20   30.17F
PIPESTONE      SUNNY     61  34  36 S22G36    30.05F
WINDOM         SUNNY     61  34  36 SE22G30   30.15F
WORTHINGTON    MOSUNNY   61  30  31 SE23G32   30.14F
JACKSON        SUNNY     61  30  31 SE18G24   30.17F
TRACY          MOSUNNY   59  37  44 SE25G32   30.12F
SLAYTON        MOSUNNY   58  36  43 SE24G36   30.11F
$$
MNZ065>067-074>077-082>085-091>093-182200-
   South Central Minnesota

CITY           SKY/WX    TMP DP  RH WIND       PRES   REMARKS
MANKATO        MOSUNNY   54  32  43 SE17G23   30.24F
NEW ULM        SUNNY     55  36  47 SE21      30.20F
ST JAMES       SUNNY     57  36  44 SE18G24   30.20F
FAIRMONT       SUNNY     57  32  38 SE21      30.21F
GLENCOE        PTSUNNY   52  31  44 E21       30.24F
FARIBAULT      MOSUNNY   54  28  37 E10       30.28F
OWATONNA       MOSUNNY   54  34  47 E15       30.27F
WASECA         MOSUNNY   55  36  47 SE15      30.27F
ALBERT LEA     MOSUNNY   55  30  38 E13       30.25F
$$
MNZ078>079-086>088-094>096-182200-
   Southeast Minnesota

CITY           SKY/WX    TMP DP  RH WIND       PRES   REMARKS
ROCHESTER      MOSUNNY   53  29  39 E7        30.29F
RED WING       SUNNY     54  23  30 SE9       30.30F
STANTON        MOSUNNY   52  27  38 SE8       30.28F
DODGE CENTER   SUNNY     54  27  35 SE8       30.29F
WINONA         MOSUNNY   54  27  35 SE6       30.33F
AUSTIN         MOSUNNY   54  28  37 SE10      30.27F
PRESTON        MOSUNNY   53  29  39 E9        30.30F
$$
ABBREVIATIONS USED IN REMARKS
   TC - TEMPERATURES IN CELSIUS
  WCI - WIND CHILL INDEX
   HX - HEAT INDEX
  VSB - VISIBILITY
$$


USA.gov is the U.S. government's official web portal to all federal, state and local government web resources and services.